RH
12 9 11 11 10 11 9 9 9 9 10 10 10 9 9 10 9 10 9 10 10 10 10 10 10 10 13 17 18 18 23 34 44 52 63 71 69 66 72 83 90 90 89 89 77 58 56 69 79 81 78 76
13 11 11 12 10 10 10 10 10 10 10 9 10 10 11 12 13 13 12 12 13 14 14 13 13 12 13 15 19 22 27 36 43 50 62 65 63 68 77 86 88 85 87 89 86 78 77 86 87 83 78 76
13 13 12 13 11 10 10 10 10 10 10 10 12 12 14 19 23 24 19 15 17 18 18 17 15 14 15 21 29 35 38 45 52 56 63 61 64 76 78 81 84 79 81 86 87 86 85 85 81 78 74 70
14 15 14 11 11 11 11 10 10 10 10 11 12 14 18 25 29 32 28 19 19 20 21 21 20 19 23 32 37 39 42 46 50 55 63 63 70 82 78 76 78 75 77 82 82 83 81 78 75 73 70 67
20 23 20 12 12 11 11 11 10 11 11 11 12 14 20 30 32 34 33 22 20 21 23 28 30 29 31 37 35 34 41 42 45 57 67 70 73 79 78 73 70 71 74 76 78 80 79 74 72 71 69 68
27 33 25 13 15 14 12 12 12 12 12 12 12 14 20 31 32 31 32 23 22 24 28 34 36 35 31 31 28 28 34 33 41 60 68 70 72 71 72 68 64 70 71 70 74 75 76 73 72 71 69 68
25 34 26 15 17 16 14 13 16 17 13 12 12 15 19 26 28 27 29 24 24 26 29 32 33 32 26 22 21 21 24 25 37 54 61 63 66 64 65 64 62 69 70 67 71 71 73 74 72 70 69 69
16 26 24 13 16 16 16 18 23 21 14 13 12 14 17 20 24 24 25 23 23 25 26 26 26 26 22 18 17 17 19 21 31 43 49 52 56 58 61 64 63 65 70 69 69 69 71 75 73 70 71 70
16 20 21 13 14 15 18 26 28 21 14 14 13 14 16 18 21 22 22 20 20 22 23 22 22 24 23 20 17 18 19 22 32 41 46 45 47 56 62 66 66 63 68 69 67 68 69 73 73 71 72 71
27 17 17 14 14 15 20 31 26 16 14 13 13 15 16 17 19 20 19 18 18 20 21 21 23 25 26 25 20 21 23 24 33 42 46 44 42 54 61 63 66 62 66 69 65 67 67 69 71 72 73 72
42 22 14 15 15 18 21 29 24 13 14 13 14 15 15 17 17 19 19 18 18 19 20 21 23 25 28 29 24 23 24 23 30 41 47 46 44 53 60 62 64 59 63 67 66 66 65 66 70 72 73 73
47 24 14 15 17 25 25 27 21 14 15 13 14 14 16 17 17 19 19 19 19 19 21 21 22 24 27 31 28 26 26 25 30 40 47 47 47 53 58 61 61 58 60 65 66 65 63 66 70 72 73 74
45 25 22 22 22 26 26 25 18 16 17 13 14 14 16 17 18 19 18 19 19 19 21 21 22 24 27 31 29 27 29 28 31 38 43 45 47 54 58 59 60 58 57 62 65 63 63 68 70 71 73 73
36 25 28 28 33 28 20 20 19 20 16 12 15 14 15 17 17 19 19 20 20 20 22 22 25 25 26 29 26 28 31 29 34 40 42 43 49 55 58 57 59 59 57 59 62 61 63 67 67 70 72 72
26 31 33 29 45 37 18 18 20 20 15 13 15 14 16 17 17 19 19 20 21 21 22 24 28 28 27 26 23 27 30 28 32 39 38 38 44 52 56 56 57 57 57 59 60 60 62 65 66 68 70 71
33 45 42 35 50 41 20 19 21 19 15 14 15 14 16 16 17 19 19 20 20 21 23 25 31 30 25 22 20 21 24 22 24 29 26 25 34 42 50 56 56 54 55 58 59 59 60 64 65 66 67 70
53 60 50 47 54 41 24 21 22 20 16 15 14 15 16 16 18 18 19 21 20 22 24 25 27 27 23 20 19 19 20 19 20 21 17 18 27 34 45 56 57 54 55 55 56 57 59 63 65 65 65 69
54 59 47 51 59 44 26 21 22 20 16 16 15 17 19 18 19 19 20 21 21 22 23 23 24 24 23 21 19 19 20 22 22 21 19 19 26 34 44 53 57 59 58 54 55 56 57 62 65 66 66 68
41 40 32 41 52 38 23 20 21 19 17 17 18 21 24 20 19 20 20 20 21 21 22 22 22 23 24 23 21 20 22 27 29 27 25 26 33 39 42 49 57 61 59 54 52 51 55 63 66 67 67 67
32 32 32 33 34 26 22 22 21 23 24 22 21 24 23 20 20 19 20 20 21 21 22 22 22 23 24 24 23 22 27 36 39 34 27 29 40 45 43 51 60 61 61 56 48 46 54 64 66 68 67 64
32 35 38 30 25 22 22 22 21 27 31 27 25 24 21 20 20 19 19 20 20 20 21 22 22 23 24 26 25 25 35 46 49 41 29 25 32 40 44 54 63 65 65 54 43 45 54 63 66 67 66 63
40 37 36 31 29 29 28 29 27 29 33 31 28 24 20 21 21 19 19 19 20 20 21 22 23 25 25 27 27 28 40 49 45 37 30 24 24 33 45 57 61 65 66 48 37 47 53 56 59 61 63 62
46 42 41 40 43 46 49 51 47 43 41 37 32 25 21 23 22 20 20 20 20 20 22 24 24 27 28 29 29 32 41 44 37 29 28 27 25 28 41 56 60 63 64 45 39 50 48 46 48 51 58 61
52 51 50 51 55 57 58 59 59 58 52 45 37 26 23 24 23 23 22 21 22 22 24 26 26 29 30 30 31 34 38 38 37 34 30 29 30 31 35 44 56 65 62 47 42 40 32 35 44 50 55 61
51 50 51 51 52 53 54 54 56 57 54 52 47 32 25 26 25 25 24 24 25 25 26 28 29 30 31 32 33 34 35 36 41 41 37 34 33 40 45 43 52 66 59 51 53 44 32 31 40 52 57 62
46 47 49 48 46 44 47 49 51 52 53 56 52 36 26 26 26 26 27 27 28 28 29 29 30 31 32 34 34 34 33 36 42 43 42 40 35 38 47 47 53 63 60 60 65 66 63 50 45 57 60 66
45 47 47 46 45 43 42 43 46 49 48 47 44 36 31 31 29 28 28 29 30 31 31 31 31 32 33 35 35 36 34 35 40 44 43 44 44 41 42 45 48 55 65 71 66 67 75 68 65 70 67 67
45 45 46 46 46 47 46 45 45 48 46 45 46 44 41 39 35 32 31 31 31 32 32 33 34 34 35 36 37 38 37 36 39 44 45 43 47 48 50 54 49 45 60 75 68 68 80 77 70 71 74 71
42 43 45 46 49 52 54 53 51 52 52 54 56 51 46 43 40 37 33 32 32 32 34 35 36 37 37 38 39 39 38 39 40 43 46 46 46 49 56 65 61 47 52 71 69 68 79 77 70 77 81 75
40 43 46 48 52 55 56 55 52 51 50 51 53 49 46 44 41 38 35 34 34 34 35 36 38 39 39 40 40 41 40 40 43 43 45 47 46 50 54 61 65 56 52 64 66 64 69 67 70 85 86 80
39 43 46 48 52 55 56 53 49 47 45 44 45 45 45 44 41 40 39 39 37 37 37 37 40 40 41 42 41 42 43 42 45 46 45 47 48 51 54 57 65 66 61 63 64 66 69 64 64 74 78 85
Wind_Speed
12 12 14 14 14 14 14 14 14 15 15 15 15 15 17 20 22 22 20 19 20 22 23 23 24 25 25 23 22 22 22 21 21 21 21 21 21 21 21 20 18 17 18 20 22 25 25 23 22 23 23 25
12 12 13 13 13 13 13 12 13 14 13 14 13 15 18 21 22 20 19 19 21 23 24 25 25 26 25 24 23 23 23 22 22 22 22 22 22 22 21 20 17 16 18 19 22 23 23 20 18 21 23 24
11 12 13 13 12 12 11 11 12 13 12 12 13 17 19 18 17 18 19 20 22 24 24 25 25 26 26 24 23 23 23 22 22 22 22 23 22 21 20 20 16 16 17 18 20 20 20 18 18 21 23 23
11 12 13 12 11 11 11 11 12 12 11 12 14 17 18 15 15 15 17 20 23 23 23 24 25 26 26 24 23 22 23 23 22 23 22 22 22 20 19 20 16 16 17 17 19 19 18 18 19 22 22 22
10 11 12 11 10 10 10 10 10 12 13 14 14 16 16 13 14 16 15 19 22 22 22 22 23 24 24 22 22 23 23 23 22 22 21 21 22 20 18 19 17 16 18 17 18 17 17 19 20 21 21 22
9 10 10 9 9 9 9 8 11 14 15 15 14 14 15 13 14 16 15 17 20 21 20 18 19 21 22 22 23 23 23 23 22 21 20 20 21 19 17 19 19 17 18 18 17 17 18 20 20 21 21 21
7 7 7 7 7 8 7 8 12 14 15 14 13 14 14 14 15 16 15 15 18 18 17 16 17 19 21 23 23 24 24 23 22 21 19 19 20 19 18 20 21 19 18 19 18 18 19 20 20 20 21 20
5 6 6 5 5 6 7 10 13 12 12 13 13 13 13 15 16 16 14 15 16 17 17 17 18 19 21 23 23 24 24 23 22 20 20 20 20 20 20 20 22 20 18 19 18 19 19 19 20 20 20 20
5 5 4 5 5 5 7 10 11 10 11 11 12 13 13 15 16 15 14 15 16 16 16 18 19 20 21 22 23 23 23 22 21 20 19 20 20 19 20 19 21 21 19 19 19 20 20 20 20 20 19 19
4 4 4 4 5 6 8 9 8 8 10 10 12 12 11 14 14 14 14 15 16 16 16 17 19 19 20 21 22 23 22 21 20 19 19 21 21 18 18 18 18 21 18 17 19 20 21 21 20 19 19 20
3 3 3 3 5 6 7 7 6 8 9 10 11 10 10 12 13 13 14 15 15 15 16 17 18 19 19 20 21 21 21 21 19 18 18 19 20 18 17 16 16 19 18 16 17 19 21 22 20 19 19 19
2 3 3 4 5 5 5 5 5 7 8 8 9 9 9 11 12 12 13 14 15 15 16 17 17 18 18 18 18 19 19 20 19 18 18 18 19 18 17 16 16 19 18 16 16 19 22 22 20 18 18 18
3 2 3 3 4 4 4 3 4 6 6 7 7 7 8 9 11 11 12 13 14 14 15 16 16 17 17 16 17 17 18 19 19 18 18 19 19 18 18 17 17 19 18 16 16 19 21 20 19 17 17 18
4 2 3 3 3 4 3 2 4 5 5 5 6 7 7 8 9 10 11 12 12 13 14 15 15 16 16 16 16 16 17 19 18 18 18 18 19 18 19 18 18 19 19 18 16 19 20 19 18 17 17 17
3 2 3 3 2 4 4 3 4 4 5 5 5 6 7 8 8 8 9 10 11 12 13 13 14 15 15 16 16 16 17 18 18 18 18 18 18 18 18 18 19 19 20 19 17 19 19 19 18 16 17 16
3 3 5 3 2 5 5 4 4 4 5 5 5 6 6 7 7 7 8 9 10 11 11 12 13 14 16 16 17 17 17 18 18 18 19 18 17 17 16 16 18 19 19 18 18 18 19 19 17 16 17 15
4 5 7 4 4 7 6 4 4 5 5 6 6 6 6 7 7 7 8 8 10 10 10 12 12 14 15 16 17 17 17 17 18 19 19 19 18 17 16 15 16 18 18 18 18 18 18 18 16 17 17 14
5 7 7 5 6 7 6 5 5 6 6 6 7 7 7 7 8 8 8 9 10 10 10 11 12 14 15 15 16 16 16 16 17 18 18 18 18 17 16 15 15 16 19 19 19 19 19 17 16 18 16 13
5 6 6 4 6 8 7 6 6 6 6 7 7 7 8 8 8 9 9 9 10 10 11 11 12 13 14 14 15 15 14 15 15 16 17 16 16 17 17 15 14 15 18 19 20 20 19 17 16 17 15 14
6 6 6 6 7 8 7 7 7 7 7 8 7 7 8 9 9 9 10 10 10 11 11 12 12 12 13 14 15 14 13 13 13 14 16 14 13 15 16 15 15 15 16 20 22 20 18 17 16 15 16 16
6 5 6 7 8 8 8 8 7 7 8 8 8 9 9 10 10 10 10 11 11 12 12 12 12 12 13 14 14 13 11 10 11 12 15 14 13 13 14 15 15 16 18 21 23 20 17 16 16 16 18 18
6 5 6 7 8 9 9 9 7 7 8 9 9 10 10 10 11 12 11 11 12 12 12 12 12 12 12 13 13 12 10 9 10 12 13 14 14 12 12 14 15 16 19 23 23 20 17 17 17 17 19 19
6 5 6 7 8 9 11 11 10 10 9 10 11 12 11 11 12 12 12 12 13 13 13 12 12 12 12 13 13 12 11 11 12 13 14 15 15 14 13 12 14 15 19 23 21 17 19 18 17 18 20 19
5 4 5 7 8 9 11 11 10 11 12 13 13 13 12 12 13 12 13 13 13 13 13 12 12 12 13 13 13 12 12 13 15 16 16 17 16 15 14 13 11 14 20 22 19 18 20 16 12 17 20 16
6 5 4 5 6 7 8 8 9 11 14 15 15 14 13 13 13 13 13 13 13 13 13 13 13 13 13 13 13 12 12 13 14 15 16 16 16 14 14 14 11 14 20 17 15 19 20 16 9 13 18 14
8 5 4 6 7 8 9 9 10 11 12 14 17 18 16 14 14 14 14 14 13 14 14 14 14 14 14 14 14 14 13 13 13 15 15 15 16 14 14 14 11 13 15 11 12 15 13 13 7 9 14 10
8 6 6 7 8 9 11 11 11 12 13 15 18 19 17 15 15 14 14 15 15 15 15 15 15 14 14 14 15 15 15 14 13 14 15 15 16 15 15 15 11 11 10 10 14 12 7 5 4 5 6 5
9 8 7 8 8 8 10 10 10 12 14 15 15 15 16 16 15 14 16 17 16 16 16 16 16 15 15 15 15 16 16 15 13 14 16 16 15 14 14 14 13 11 9 10 12 7 3 4 3 4 2 9
11 9 8 7 7 8 9 10 9 11 13 14 12 12 15 16 17 17 18 18 18 17 17 17 17 17 17 16 16 16 17 16 15 15 16 16 15 13 12 12 14 15 11 9 10 6 3 3 2 3 5 12
12 10 8 7 6 8 10 10 10 10 10 11 11 12 14 17 19 20 20 18 18 18 17 17 18 19 19 18 18 18 18 18 17 17 16 16 16 14 13 12 14 17 13 9 12 11 8 6 6 6 7 7
12 10 9 8 8 10 11 13 12 9 10 11 12 14 16 18 19 20 20 18 18 18 18 18 18 19 19 19 19 19 19 19 18 18 18 17 17 16 15 13 13 16 15 11 11 10 10 11 12 11 8 4
Wind_Direction
49 51 52 48 48 47 46 47 48 49 50 51 52 54 55 53 50 45 41 42 43 43 41 38 35 36 37 32 28 26 25 22 17 15 11 7 8 8 6 2 358 356 356 355 356 359 5 7 5 3 3 4
52 50 54 48 46 49 47 49 52 52 53 55 58 59 55 53 51 44 39 42 43 42 39 36 35 36 36 32 27 24 24 21 16 15 12 8 8 7 2 357 355 355 355 355 355 357 2 5 1 1 6 7
56 52 53 49 47 50 50 52 55 54 54 56 59 58 54 50 50 42 32 37 40 38 36 33 33 34 33 29 23 20 20 16 11 11 10 8 5 2 359 357 355 354 354 355 355 356 359 1 360 2 6 7
56 52 48 49 48 50 52 52 55 57 55 54 55 57 56 47 49 46 26 30 39 36 34 29 28 29 27 24 18 18 18 13 10 10 8 4 1 357 356 358 356 353 354 354 354 356 360 0 1 4 6 5
52 48 42 45 49 50 52 53 58 59 54 50 49 56 60 46 45 50 26 26 38 35 32 25 23 24 21 20 17 19 19 12 11 10 3 357 357 356 353 356 357 354 354 354 353 355 358 0 3 4 4 3
48 45 37 43 49 48 48 57 58 51 48 46 45 53 59 51 44 48 31 26 37 33 28 21 21 22 18 21 19 21 19 12 13 7 359 355 355 356 352 354 358 355 351 353 354 355 356 360 4 3 2 1
53 54 38 43 51 47 45 53 50 41 42 43 43 47 54 55 49 48 34 27 36 33 25 21 26 24 19 23 21 23 21 13 16 9 360 356 353 355 354 354 358 355 349 352 355 354 355 358 3 2 1 357
56 65 44 43 51 48 48 47 41 33 37 41 42 44 50 56 51 46 35 29 37 33 26 25 30 28 23 24 22 23 21 15 18 14 4 358 355 356 355 354 356 355 349 350 352 351 352 356 360 359 359 352
56 66 56 46 49 46 48 44 33 28 36 38 41 41 45 54 51 44 35 32 37 33 29 27 30 29 23 23 21 21 19 14 17 14 5 359 359 359 356 352 349 351 349 348 347 346 350 353 357 357 355 349
45 45 58 49 53 45 50 46 27 29 37 35 40 38 39 52 52 44 36 33 35 32 30 27 28 27 21 20 17 18 17 12 15 13 5 359 2 3 357 351 345 346 348 344 343 343 347 349 353 354 350 347
35 19 39 39 51 41 49 49 26 34 37 32 38 34 33 47 49 44 36 32 31 29 28 26 26 24 20 17 12 15 15 10 15 14 5 358 0 3 356 353 344 343 345 340 339 340 343 346 350 349 345 344
3 351 23 31 48 37 42 42 26 37 36 29 33 30 29 40 44 40 34 30 27 25 26 24 24 23 19 16 8 11 13 8 13 13 5 356 357 1 357 353 344 342 346 341 338 337 341 344 346 344 340 340
312 317 358 12 35 27 30 30 31 38 30 21 24 23 21 34 38 35 31 28 23 21 23 23 22 20 17 14 4 9 13 7 11 11 3 356 355 358 355 352 344 341 346 347 339 334 338 340 340 338 335 336
283 307 329 339 3 0 4 10 27 27 15 11 13 13 13 27 32 28 27 23 18 16 19 19 19 16 14 11 2 8 12 5 11 9 360 355 353 353 350 347 344 340 343 348 340 332 333 333 334 331 331 335
274 303 306 321 329 321 335 358 18 11 0 358 360 6 7 17 21 19 20 15 12 13 16 15 14 12 9 7 1 8 11 5 11 7 357 357 357 353 347 344 343 340 340 343 337 332 327 325 328 324 329 334
277 289 290 310 296 296 321 349 2 352 347 348 345 354 359 3 5 7 10 8 8 12 15 13 11 7 6 6 1 8 12 7 11 8 359 360 1 356 348 343 339 337 338 336 328 326 321 319 320 317 327 331
268 278 281 293 282 289 317 335 335 332 336 338 334 336 346 353 352 357 3 2 5 9 11 10 9 4 5 6 1 6 10 6 9 6 360 360 359 355 350 342 333 333 336 331 322 318 315 314 309 310 325 324
243 258 266 271 271 285 308 317 312 317 324 326 329 331 333 342 345 348 353 355 358 1 3 4 5 2 2 2 359 3 6 4 5 1 358 358 353 350 347 339 331 328 328 325 319 314 312 310 301 305 318 318
255 258 262 259 262 277 295 304 302 307 318 321 326 327 321 328 337 339 343 348 349 350 353 354 354 356 356 356 355 359 4 3 358 352 352 354 348 343 341 339 333 325 321 319 316 311 309 306 298 300 306 310
273 269 270 271 271 279 288 296 299 301 309 312 315 316 312 321 329 331 335 338 340 339 342 342 343 347 348 351 351 353 0 357 347 342 345 349 345 336 334 335 330 321 316 315 316 314 309 302 297 294 292 301
274 272 273 280 282 283 285 288 291 293 300 303 305 307 311 321 322 323 329 330 331 332 333 333 334 339 343 345 346 348 353 345 332 332 337 344 347 338 332 329 322 315 311 315 318 317 311 300 293 287 282 295
271 274 276 285 289 291 295 295 294 290 294 297 299 304 311 318 317 317 322 323 324 326 326 329 329 331 335 338 341 345 343 328 321 327 334 344 349 344 335 326 320 313 306 314 322 319 314 305 293 282 277 290
286 302 300 307 307 306 307 308 307 299 296 294 292 300 309 312 312 314 317 317 319 321 323 325 324 324 327 332 337 339 333 320 322 332 339 345 345 344 338 324 317 308 303 316 324 319 314 307 292 276 273 285
284 304 309 315 309 304 306 308 304 293 294 294 290 297 305 304 306 310 311 313 316 318 321 321 321 321 321 325 329 331 327 322 326 334 339 341 341 341 336 328 319 305 308 320 324 320 319 315 295 271 267 277
252 260 265 276 276 281 288 292 288 287 292 292 289 296 301 299 301 305 308 312 315 317 318 318 318 318 316 318 321 321 322 324 327 328 331 333 335 337 329 329 328 311 316 327 329 327 327 330 316 256 256 274
251 249 246 257 264 266 266 265 270 277 281 280 283 292 295 293 296 300 305 310 313 314 314 314 314 314 313 313 313 315 320 324 322 319 322 325 328 332 325 324 324 316 323 336 330 322 316 328 326 242 251 269
258 254 260 275 278 274 272 270 267 265 267 272 279 288 293 293 292 295 301 307 309 310 310 311 311 311 310 309 309 311 315 319 318 314 316 318 322 326 324 322 316 317 330 329 325 322 297 320 337 266 258 266
265 265 272 279 284 284 284 286 275 267 272 277 280 287 293 295 295 296 302 305 305 305 307 308 309 309 308 307 306 307 310 314 313 309 309 312 317 320 320 319 314 317 328 318 325 338 284 297 312 282 329 330
269 272 276 278 288 295 293 291 280 270 272 273 277 287 293 296 299 300 303 303 301 302 304 305 306 307 307 306 305 305 306 308 306 303 303 305 310 314 311 307 303 309 322 312 307 307 282 302 302 282 339 339
269 270 271 268 266 272 277 278 275 273 273 270 275 284 286 291 296 299 303 303 302 303 305 305 305 304 305 306 305 305 304 304 302 299 297 299 304 306 302 296 293 299 311 307 293 286 270 261 261 279 329 340
262 261 261 257 250 252 258 264 267 266 266 268 269 270 274 282 292 299 303 305 305 305 305 304 302 301 303 303 303 303 301 301 299 296 296 299 302 303 299 293 287 292 301 304 293 279 269 271 275 280 288 277